MAYA-3 (49273 NORAD) Tracking and Keplerian Element Data

This shows tracking and keplerian element data for the satellite.

Feedback or suggestion? Click here.




ElementValue
Catalog49273
NameMAYA-3
Epoch Orbit141
Epoch Day287.9037357
Epoch Year2021
RAAN110.7128
Inclination51.6414
Eccentricity0.0005412
Argument of Perigee125.7146
Mean Anonmoly234.4347
Mean Motion15.50037066
Decay Rate0.0001769
L11 49273U 98067SS 21287.90373570 .00017690 00000-0 31673-3 0 9995
L22 49273 51.6414 110.7128 0005412 125.7146 234.4347 15.50037066 1412

Live tracking and technical data element details for MAYA-3 (NORAD 49273). MAYA-3 can be tracked NOW for your location showing map with azimuth and elevation plus other details from your city location.

Track the satellite on the map from your city or location and see movement details for azimuth, elevation, latitude, longitude, range, height, and movement on the map or in text.







IsCatalogInMostPopularTable: catalog: 49273, numindb: 5
Update: records affected: 1



GetName: 49273 MAYA-3

Hit Count: updated at: Tue, 19 Oct 2021 09:04:53 GMT